Location: Ebernhahn
(50.4727°N, 7.7699°E)
Time: 23:54:27
(UTC+00:00)

Daily predictions for brighter satellites

Satellite Brightness Start Highest point End
(mag) Time Altitude Azimuth Time Altitude Azimuth Time Altitude Azimuth
Cosmos 1269 Rocket 4.1 15:53:28 10° S 15:58:43 66° ESE 16:03:59 10° NNE
Cosmos 1689 Rocket 2.3 15:58:08 10° NNE 16:01:09 55° E 16:04:08 10° S
COSMOS 2455 3.6 15:56:26 10° WSW 16:02:16 48° NW 16:08:07 10° NNE
Helios 1A Rocket 2.9 15:58:31 10° SSE 16:02:37 83° ENE 16:06:45 10° NNW
Cosmos 1869 Rocket 3.8 16:00:57 10° NNW 16:05:23 80° W 16:09:50 10° S
Cosmos 1400 Rocket 3.5 16:01:42 10° SSW 16:05:45 57° WNW 16:09:46 10° N
Cosmos 2333 Rocket 2.6 16:00:44 10° S 16:06:15 49° ESE 16:11:47 10° NE
Cosmos 1484 Rocket 4.3 16:03:22 10° S 16:07:11 42° W 16:11:02 10° NNW
SeaSat 1 4.4 16:07:04 10° NE 16:08:01 11° NNE 16:08:58 10° NNE
Cosmos 1302 Rocket 4.1 16:04:13 10° NNW 16:09:32 90° W 16:14:48 10° SSE
Cosmos 2237 Rocket 3.5 16:06:50 10° SSE 16:11:07 22° ESE 16:15:25 10° NE
Radarsat Rocket 4.1 16:06:50 10° SSE 16:12:59 88° WSW 16:18:51 10° NNW
CENTAUR R/B 4.3 16:06:56 10° NW 16:14:35 50° WSW 16:22:49 10° SSE
Cosmos 2322 Rocket 3.4 16:09:29 10° WSW 16:14:41 37° NW 16:19:57 10° NNE
Cosmos 1812 3.7 16:15:33 10° SSE 16:18:51 27° E 16:22:10 10° NNE
Meteor 1-11 Rocket 4.0 16:13:53 10° N 16:19:46 54° ENE 16:25:35 10° SSE
USA 215 3.4 16:15:23 10° ENE 16:21:57 77° SE 16:28:29 10° SW
SL-16 R/B 3.7 16:17:18 10° WSW 16:22:19 31° NW 16:27:22 10° NNE
Cosmos 921 Rocket 4.4 16:19:41 10° N 16:22:33 17° NE 16:25:26 10° E
CORIOLIS 4.3 16:18:33 10° SE 16:23:48 51° ENE 16:29:05 10° N
Cosmos 2219 Rocket 2.3 16:19:22 10° SSW 16:24:55 65° ESE 16:30:31 10° NE
Cosmos 2251 Rocket 4.2 16:20:31 10° SSE 16:25:17 35° ESE 16:30:03 10° NE
Meteor 1-27 Rocket 4.3 16:21:14 10° SSE 16:26:29 38° E 16:31:51 10° NNE
Exosat Rocket 4.2 16:22:18 10° S 16:27:06 36° ESE 16:31:41 10° NE
Cosmos 1340 4.0 16:27:37 10° NNW 16:31:15 43° W 16:34:50 10° SSW
Cosmos 1500 3.2 16:29:49 10° N 16:33:33 56° ENE 16:37:14 10° SSE
RESURS DK-1 2.5 16:30:52 10° SSW 16:34:54 59° ESE 16:38:37 12° NE
YAOGAN 6 3.8 16:32:57 10° ESE 16:35:40 21° ENE 16:38:26 10° NNE
Cosmos 1862 Rocket 3.9 16:32:58 10° SSE 16:37:05 43° E 16:41:15 10° NNE
Cosmos 1943 Rocket 3.6 16:33:16 10° N 16:37:12 19° NE 16:39:37 15° ENE
Okean O Rocket 2.9 16:33:39 10° S 16:37:48 44° W 16:41:59 10° NNW
IRS-1C Rocket 4.1 16:33:08 10° SSE 16:38:25 83° ENE 16:43:43 10° NNW
ISS -2.5 16:37:21 10° W 16:40:33 42° SSW 16:43:44 10° SE
Cosmos 1980 4.2 16:36:26 10° S 16:41:37 39° ESE 16:46:07 13° NE
Envisat 3.2 16:37:03 10° SE 16:41:53 46° ENE 16:46:44 10° N
Cosmos 1900 4.2 16:37:38 10° NW 16:42:34 72° NE 16:47:25 10° SE
SMAP 3.0 16:38:19 10° SSE 16:42:58 81° ENE 16:47:39 10° NNW
Cosmos 2242 Rocket 4.3 16:39:54 10° SSE 16:44:01 34° E 16:48:10 10° NNE
Cosmos 2297 4.2 16:39:15 10° NNW 16:44:36 38° NE 16:49:51 10° ESE
Feng Yun 1-1 Rocket 4.2 16:43:26 10° SSE 16:48:50 89° W 16:54:16 10° NNW
CSL-04 Rocket 4.4 16:44:37 10° ESE 16:49:07 30° ENE 16:53:40 10° N
H-2A R/B 2.5 16:45:56 10° SSE 16:49:37 84° ENE 16:53:20 10° NNW
Cosmos 1441 Rocket 4.1 16:46:23 10° N 16:49:41 26° ENE 16:52:55 10° SE
STARLINK-67 2.8 16:47:05 10° W 16:49:50 58° NNW 16:51:04 28° ENE
NOSS 7 (A) 4.5 16:49:02 10° SW 16:52:11 82° SE 16:53:48 24° NE
Cosmos 1992 Rocket 3.9 16:47:31 10° NNW 16:52:47 85° ENE 16:58:01 10° SSE
Cosmos 1707 Rocket 4.1 16:48:22 10° SSW 16:52:47 63° WNW 16:57:16 10° N
Okean-O 2.6 16:49:36 10° SSE 16:53:58 60° ENE 16:58:21 10° N
COBE Rocket 3.8 16:49:34 10° NNE 16:54:12 63° E 16:58:50 10° S
Cosmos 1536 2.8 16:51:03 10° N 16:55:04 63° ENE 16:59:02 10° SSE
CZ-4B R/B 4.0 16:53:25 10° NNW 16:56:05 20° WNW 16:58:43 10° WSW
Cosmos 1867 4.2 16:51:44 10° NNW 16:56:46 35° NNE 16:59:53 20° E
USA 267 4.1 16:51:39 10° SE 16:58:00 52° SW 17:04:23 10° WNW
BREEZE-M R/B 3.0 16:52:42 10° W 16:58:48 82° S 17:00:46 25° E
COSMOS 2428 2.8 16:53:07 10° SSW 16:58:48 78° WNW 17:04:22 11° NNE
Shenzhou-11 Module 4.2 17:01:20 10° SW 17:03:12 17° S 17:04:47 11° SE
NOSS 3-4 (A) 3.9 16:57:53 10° WSW 17:03:53 58° NW 17:09:09 16° NE
NOSS 3-4 (C) 3.9 16:57:59 10° WSW 17:04:00 59° NW 17:09:15 16° NE
Cosmos 292 Rocket 3.7 17:00:41 10° NNW 17:05:32 65° ENE 17:10:23 10° SE
STARLINK-46 2.4 17:03:19 10° WSW 17:06:00 76° SSE 17:06:34 49° E
Lacrosse 5 rocket 1.3 17:05:19 10° SW 17:09:34 72° SE 17:11:25 31° ENE
Cosmos 1908 Rocket 3.5 17:05:11 10° N 17:09:36 64° ENE 17:13:56 10° SSE
Genesis I 3.2 17:07:50 10° NW 17:11:42 56° NE 17:13:36 27° ESE
CZ-4 R/B 1.6 17:08:20 10° SE 17:12:01 42° ENE 17:15:41 10° N
COSMO-SKYMED 1 3.1 17:11:25 26° NE 17:13:10 37° E 17:17:12 10° SSE
Aureole 1 Rocket 3.6 17:12:14 10° SSE 17:13:53 23° SE 17:13:53 23° SE
Nadezhda 4 Rocket 4.0 17:10:35 10° S 17:16:55 87° E 17:23:17 10° N
SL-4 R/B 1.8 17:13:55 10° WSW 17:17:42 90° N 17:19:09 38° ENE
Cosmos 1666 2.5 17:14:19 10° N 17:18:05 75° E 17:21:49 10° SSE
Cosmos 1553 Rocket 4.4 17:14:42 10° N 17:20:40 40° ENE 17:26:39 10° SE
YAOGAN 1 2.7 17:19:08 10° SE 17:23:16 47° ENE 17:27:26 10° N
FengYun 1-2 T 4.1 17:17:52 10° SSE 17:23:19 75° ENE 17:28:51 10° NNW
Ariane Rocket 4.1 17:26:20 25° NE 17:26:20 25° NE 17:29:27 10° N
NOAA 11 4.5 17:20:23 10° SE 17:25:30 43° ENE 17:30:41 10° N
Cosmos 2278 Rocket 3.3 17:20:43 10° NW 17:26:07 47° WSW 17:31:30 10° S
Okean 1-7 3.1 17:28:01 10° SSE 17:32:13 50° E 17:32:59 44° ENE
Cosmos 2360 Rocket 4.1 17:28:55 10° W 17:33:25 23° NW 17:37:56 10° NNE
Cosmos 2344 4.4 17:25:44 10° NW 17:34:09 49° NNE 17:40:04 27° E
SKYMED 3 4.5 17:35:51 37° NE 17:37:26 64° ESE 17:41:44 10° S
Cosmos 2026 Rocket 3.9 17:33:14 10° S 17:39:11 62° E 17:45:10 10° NNE
Cosmos 2369 Rocket 2.9 17:35:00 10° NNW 17:39:54 33° NE 17:39:54 33° NE
Cosmos 1743 4.4 17:36:56 10° N 17:38:22 21° N 17:38:22 21° N
ATLAS 2AS CENTAUR R/B 3.9 17:34:46 10° W 17:42:22 43° NNW 17:47:23 21° NE
SL-16 R/B 2.5 17:38:05 10° S 17:43:24 43° ESE 17:44:01 41° E
SeaSat 1 3.5 17:45:12 29° NNE 17:45:12 29° NNE 17:48:36 10° NNW
Cosmos 2333 Rocket 3.5 17:45:22 10° WSW 17:50:42 38° NW 17:54:57 15° NNE
Cosmos 1417 Rocket 4.4 17:45:49 10° N 17:51:53 61° ENE 17:57:57 10° SSE
BREEZE-M DEB (TANK) 3.0 17:48:53 10° W 17:52:39 37° SSW 17:52:49 37° S
Cosmos 2237 Rocket 2.4 17:48:56 10° SW 17:54:38 72° WNW 17:57:41 28° NNE
Sich 1 Rocket 3.4 17:56:39 10° N 18:01:06 89° WSW 18:05:29 10° S
Cosmos 921 Rocket 3.2 17:57:04 10° NNW 18:01:19 70° WSW 18:04:17 20° S
IRS-1A Rocket 4.4 18:01:17 52° ENE 18:01:23 52° ENE 18:07:06 10° N
SKYMED 2 3.6 18:00:06 44° N 18:01:25 76° WNW 18:05:45 10° SSW
Cosmos 1782 Rocket 3.9 17:59:46 10° NNW 18:04:06 64° W 18:08:23 10° S
USA 215 3.5 18:02:28 38° NE 18:04:53 59° NNW 18:11:16 10° W
Cosmos 1627 Rocket 4.4 18:00:12 10° S 18:06:20 83° W 18:12:30 10° N
NOSS 0 Rocket 4.5 18:00:22 10° SW 18:06:28 56° NW 18:10:05 25° NNE
Cosmos 1655 Rocket 4.2 18:01:08 10° SSE 18:06:27 49° ESE 18:06:27 49° ESE
YAOGAN 6 4.2 18:05:45 10° SSW 18:09:00 34° W 18:12:19 10° NNW
Cosmos 2219 Rocket 3.8 18:04:26 10° WSW 18:09:20 30° NW 18:12:52 16° N
RESURS DK-1 4.4 18:10:01 10° W 18:13:18 22° NW 18:14:31 20° NNW
Cosmos 614 Rocket 3.9 18:11:51 10° SSW 18:16:23 69° S 18:16:23 69° S
Cosmos 1703 Rocket 4.3 18:13:22 10° SSW 18:17:44 51° WNW 18:19:20 34° NNW
Cosmos 1943 Rocket 2.4 18:16:26 10° NNW 18:21:11 57° N 18:21:11 57° N
CSL-04 Rocket 4.4 18:24:07 10° S 18:29:14 50° W 18:34:25 10° NNW
Cosmos 407 Rocket 3.7 18:27:05 10° SSW 18:31:32 66° SW 18:31:32 66° SW
Meteor 1-18 Rocket 4.3 18:29:42 10° SSW 18:35:26 75° WNW 18:36:16 63° NNW
Cosmos 1867 3.8 18:35:19 10° NW 18:40:36 65° WSW 18:40:36 65° WSW
NOSS 3-1 (C) 3.9 18:35:50 10° NW 18:43:03 68° NE 18:43:13 68° NE
CZ-4 R/B 3.9 18:44:20 10° SW 18:47:15 20° W 18:50:08 10° NW
Lacrosse 5 rocket 3.5 18:45:04 10° W 18:47:04 24° WNW 18:47:04 24° WNW
COSMO-SKYMED 1 4.4 18:48:38 27° NW 18:49:14 28° WNW 18:52:56 10° WSW
USA 229 DEB 3.8 18:44:01 10° NW 18:50:47 72° NNE 18:50:47 72° NNE
USA 229 3.8 18:44:08 10° NW 18:50:51 72° NNE 18:50:51 72° NNE
S3M 4.2 18:46:27 10° NNW 18:52:38 66° W 18:58:42 10° S
NOSS 3-1 (A) 4.1 18:49:24 10° NW 18:55:37 57° N 18:55:37 57° N
SL-4 R/B 4.5 18:53:30 10° W 18:54:45 20° WNW 18:54:45 20° WNW
Cosmos 2369 Rocket 3.8 19:18:53 10° NW 19:21:43 30° NW 19:21:43 30° NW
SL-16 R/B 3.7 19:22:12 10° WSW 19:25:57 34° W 19:25:57 34° W
ATLAS 2AS CENTAUR R/B 4.2 19:28:26 10° WNW 19:34:49 31° N 19:34:49 31° N
Cosmos 2237 Rocket 4.3 19:35:37 10° W 19:39:33 20° NW 19:39:33 20° NW
USA 215 4.5 19:49:49 35° NW 19:49:49 35° NW 19:53:41 10° WNW
Cosmos 2344 4.3 19:40:12 10° NW 19:49:42 78° SW 19:50:07 77° SSW
